Location: Elstree
(51.6403°N, 0.2969°W)
Time: 13:26:29
(UTC+00:00)

FENGYUN 1C DEB - Visible Passes

Search period start: 24 September 2021 00:00
Search period end: 04 October 2021 00:00
Orbit: 774 x 1108 km, 99.2° (Epoch: 23 September)

Date Brightness Start Highest point End Pass type
(mag) Time Alt. Az. Time Alt. Az. Time Alt. Az.
24 Sep ? 19:27:53 10° S 19:34:41 70° WSW 19:41:18 10° NNW visible
24 Sep ? 21:14:21 10° WSW 21:18:15 16° W 21:22:07 10° NW visible
25 Sep ? 19:42:55 10° S 19:49:36 57° W 19:56:05 10° NNW visible
25 Sep ? 21:30:54 10° WSW 21:33:24 12° W 21:35:53 10° WNW visible
26 Sep ? 18:15:40 10° SE 18:22:02 46° ENE 18:28:11 10° N visible
26 Sep ? 19:58:02 10° S 20:04:32 46° W 20:10:49 10° NNW visible
27 Sep ? 18:30:14 10° SE 18:36:48 55° ENE 18:43:06 10° N visible
27 Sep ? 20:13:17 10° SSW 20:19:30 37° W 20:25:31 10° NNW visible
28 Sep ? 18:44:53 10° SSE 18:51:35 67° ENE 18:57:59 10° NNW visible
28 Sep ? 20:28:40 10° SSW 20:34:30 30° W 20:40:08 10° NNW visible
29 Sep ? 18:59:38 10° SSE 19:06:24 81° ENE 19:12:51 10° NNW visible
29 Sep ? 20:44:14 10° SW 20:49:31 24° W 20:54:39 10° NW visible
30 Sep ? 19:14:28 10° SSE 19:21:15 83° WSW 19:27:41 10° NNW visible
30 Sep ? 21:00:00 10° SW 21:04:34 19° W 21:09:02 10° NW visible
01 Oct ? 19:29:24 10° S 19:36:07 68° WSW 19:42:29 10° NNW visible
01 Oct ? 21:16:05 10° WSW 21:19:40 15° W 21:23:10 10° NW visible
02 Oct ? 18:02:40 10° SE 18:08:41 38° ENE 18:14:23 10° N visible
02 Oct ? 19:44:26 10° S 19:51:01 55° W 19:57:14 10° NNW visible
02 Oct ? 21:32:56 10° W 21:34:47 11° W 21:36:37 10° WNW visible
03 Oct ? 18:17:09 10° SE 18:23:25 46° ENE 18:29:19 10° N visible
03 Oct ? 19:59:35 10° S 20:05:56 44° W 20:11:57 10° NNW visible
